Time,TemperatureF,DewpointF,PressureIn,WindDirection,WindDirectionDegrees,WindSpeedMPH,WindSpeedGustMPH,Humidity,HourlyPrecipIn,Conditions,Clouds,dailyrainin,SoftwareType,DateUTC
2013-06-23 00:00:00,66.2,60.6,30.21,ENE,71,0.0,0.0,82,0.00,,CLR,0.00,VWS V14.01,2013-06-23 04:00:00,
2013-06-23 00:01:00,66.2,60.6,30.21,ENE,71,0.0,0.0,82,0.00,,CLR,0.00,VWS V14.01,2013-06-23 04:01:00,
2013-06-23 00:06:00,66.2,60.6,30.21,ENE,71,0.0,0.0,82,0.00,,OVC100,0.00,VWS V14.01,2013-06-23 04:06:00,
2013-06-23 00:11:00,66.0,60.7,30.21,ENE,71,0.0,0.0,83,0.00,,OVC100,0.00,VWS V14.01,2013-06-23 04:11:00,
2013-06-23 00:16:00,66.0,60.7,30.21,ENE,71,0.0,0.0,83,0.00,,OVC100,0.00,VWS V14.01,2013-06-23 04:16:00,
2013-06-23 00:21:00,65.8,60.7,30.21,ENE,71,0.0,0.0,83,0.00,,OVC100,0.00,VWS V14.01,2013-06-23 04:21:00,
2013-06-23 00:26:00,65.8,60.7,30.21,ENE,71,0.0,0.0,83,0.00,,OVC100,0.00,VWS V14.01,2013-06-23 04:26:00,
2013-06-23 00:31:00,65.7,60.5,30.21,ENE,71,0.0,0.0,83,0.00,,OVC100,0.00,VWS V14.01,2013-06-23 04:31:00,
2013-06-23 00:36:00,65.7,60.8,30.21,ENE,71,0.0,0.0,84,0.00,,OVC100,0.00,VWS V14.01,2013-06-23 04:36:00,
2013-06-23 00:41:00,65.5,60.6,30.21,ENE,71,0.0,0.0,84,0.00,,OVC100,0.00,VWS V14.01,2013-06-23 04:41:00,
2013-06-23 00:46:00,65.5,60.6,30.21,ENE,71,0.0,0.0,84,0.00,,OVC100,0.00,VWS V14.01,2013-06-23 04:46:00,
2013-06-23 00:51:00,65.3,60.6,30.21,ENE,71,0.0,0.0,85,0.00,,OVC100,0.00,VWS V14.01,2013-06-23 04:51:00,
2013-06-23 00:56:00,65.3,60.6,30.21,ENE,71,0.0,0.0,85,0.00,,OVC100,0.00,VWS V14.01,2013-06-23 04:56:00,
2013-06-23 01:01:00,65.3,60.6,30.18,ENE,71,0.0,0.0,85,0.00,,OVC100,0.00,VWS V14.01,2013-06-23 05:01:00,
2013-06-23 01:06:00,65.1,60.5,30.18,ENE,71,0.0,0.0,85,0.00,,BKN100,0.00,VWS V14.01,2013-06-23 05:06:00,
2013-06-23 01:11:00,65.1,60.5,30.18,ENE,71,0.0,0.0,85,0.00,,BKN100,0.00,VWS V14.01,2013-06-23 05:11:00,
2013-06-23 01:16:00,64.9,60.3,30.18,ENE,71,0.0,0.0,85,0.00,,BKN100,0.00,VWS V14.01,2013-06-23 05:16:00,
2013-06-23 01:21:00,64.9,60.3,30.18,ENE,71,0.0,0.0,85,0.00,,BKN100,0.00,VWS V14.01,2013-06-23 05:21:00,
2013-06-23 01:26:00,64.8,60.1,30.18,ENE,71,0.0,0.0,85,0.00,,BKN100,0.00,VWS V14.01,2013-06-23 05:26:00,
2013-06-23 01:31:00,64.8,60.1,30.18,ENE,71,0.0,0.0,85,0.00,,BKN100,0.00,VWS V14.01,2013-06-23 05:31:00,
2013-06-23 01:36:00,64.8,60.3,30.18,ENE,71,0.0,0.0,86,0.00,,BKN100,0.00,VWS V14.01,2013-06-23 05:36:00,
2013-06-23 01:41:00,64.6,60.1,30.18,ENE,71,0.0,0.0,86,0.00,,BKN100,0.00,VWS V14.01,2013-06-23 05:41:00,
2013-06-23 01:46:00,64.6,60.4,30.18,ENE,71,0.0,0.0,86,0.00,,BKN100,0.00,VWS V14.01,2013-06-23 05:46:00,
2013-06-23 01:51:00,64.4,60.2,30.18,ENE,71,0.0,0.0,86,0.00,,BKN100,0.00,VWS V14.01,2013-06-23 05:51:00,
2013-06-23 01:56:00,64.4,60.2,30.18,ENE,71,0.0,0.0,86,0.00,,BKN100,0.00,VWS V14.01,2013-06-23 05:56:00,
2013-06-23 02:01:00,64.4,60.2,30.18,ENE,71,0.0,0.0,86,0.00,,BKN100,0.00,VWS V14.01,2013-06-23 06:01:00,
2013-06-23 02:06:00,64.4,60.2,30.18,ENE,71,0.0,0.0,86,0.00,,CLR,0.00,VWS V14.01,2013-06-23 06:06:00,
2013-06-23 02:11:00,64.2,60.0,30.18,ENE,71,0.0,0.0,86,0.00,,CLR,0.00,VWS V14.01,2013-06-23 06:11:00,
2013-06-23 02:16:00,64.2,60.0,30.18,ENE,71,0.0,0.0,86,0.00,,CLR,0.00,VWS V14.01,2013-06-23 06:16:00,
2013-06-23 02:21:00,64.0,60.1,30.18,ENE,71,0.0,0.0,87,0.00,,CLR,0.00,VWS V14.01,2013-06-23 06:21:00,
2013-06-23 02:26:00,64.0,60.1,30.18,ENE,71,0.0,0.0,87,0.00,,CLR,0.00,VWS V14.01,2013-06-23 06:26:00,
2013-06-23 02:31:00,64.0,60.1,30.18,ENE,71,0.0,0.0,87,0.00,,CLR,0.00,VWS V14.01,2013-06-23 06:31:00,
2013-06-23 02:36:00,63.9,59.9,30.18,ENE,71,0.0,0.0,87,0.00,,CLR,0.00,VWS V14.01,2013-06-23 06:36:00,
2013-06-23 02:41:00,63.9,60.1,30.18,ENE,71,0.0,0.0,88,0.00,,CLR,0.00,VWS V14.01,2013-06-23 06:41:00,
2013-06-23 02:46:00,63.9,60.1,30.18,ENE,71,0.0,0.0,88,0.00,,CLR,0.00,VWS V14.01,2013-06-23 06:46:00,
2013-06-23 02:51:00,63.9,60.1,30.18,ENE,71,0.0,0.0,88,0.00,,CLR,0.00,VWS V14.01,2013-06-23 06:51:00,
2013-06-23 02:56:00,63.7,59.9,30.18,ENE,71,0.0,0.0,88,0.00,,CLR,0.00,VWS V14.01,2013-06-23 06:56:00,
2013-06-23 03:01:00,63.7,59.9,30.18,ENE,71,0.0,0.0,88,0.00,,CLR,0.00,VWS V14.01,2013-06-23 07:01:00,
2013-06-23 03:06:00,63.7,59.9,30.18,ENE,71,0.0,0.0,88,0.00,,CLR,0.00,VWS V14.01,2013-06-23 07:06:00,
2013-06-23 03:11:00,63.7,59.9,30.18,ENE,71,0.0,0.0,88,0.00,,CLR,0.00,VWS V14.01,2013-06-23 07:11:00,
2013-06-23 03:16:00,63.5,59.7,30.18,ENE,71,0.0,0.0,88,0.00,,CLR,0.00,VWS V14.01,2013-06-23 07:16:00,
2013-06-23 03:21:00,63.5,59.7,30.18,ENE,71,0.0,0.0,88,0.00,,CLR,0.00,VWS V14.01,2013-06-23 07:21:00,
2013-06-23 03:26:00,63.5,59.7,30.18,ENE,71,0.0,0.0,88,0.00,,CLR,0.00,VWS V14.01,2013-06-23 07:26:00,
2013-06-23 03:31:00,63.5,59.7,30.15,ENE,71,0.0,0.0,88,0.00,,CLR,0.00,VWS V14.01,2013-06-23 07:31:00,
2013-06-23 03:36:00,63.5,59.7,30.15,ENE,71,0.0,0.0,88,0.00,,CLR,0.00,VWS V14.01,2013-06-23 07:36:00,
2013-06-23 03:41:00,63.5,59.7,30.15,ENE,71,0.0,0.0,88,0.00,,CLR,0.00,VWS V14.01,2013-06-23 07:41:00,
2013-06-23 03:46:00,63.5,59.7,30.18,ENE,71,0.0,0.0,88,0.00,,CLR,0.00,VWS V14.01,2013-06-23 07:46:00,
2013-06-23 03:51:00,63.5,59.7,30.18,ENE,71,0.0,0.0,88,0.00,,CLR,0.00,VWS V14.01,2013-06-23 07:51:00,
2013-06-23 03:56:00,63.3,59.6,30.18,ENE,71,0.0,0.0,88,0.00,,CLR,0.00,VWS V14.01,2013-06-23 07:56:00,
2013-06-23 04:01:00,63.3,59.6,30.15,ENE,71,0.0,0.0,88,0.00,,CLR,0.00,VWS V14.01,2013-06-23 08:01:00,
2013-06-23 04:06:00,63.3,59.6,30.15,ENE,71,0.0,0.0,88,0.00,,,0.00,VWS V14.01,2013-06-23 08:06:00,
2013-06-23 04:11:00,63.3,59.6,30.15,ENE,71,0.0,0.0,88,0.00,,,0.00,VWS V14.01,2013-06-23 08:11:00,
2013-06-23 04:16:00,63.3,59.6,30.15,ENE,71,0.0,0.0,88,0.00,,,0.00,VWS V14.01,2013-06-23 08:16:00,
2013-06-23 04:21:00,63.3,59.6,30.15,ENE,71,0.0,0.0,88,0.00,,,0.00,VWS V14.01,2013-06-23 08:21:00,
2013-06-23 04:26:00,63.3,59.6,30.15,ENE,71,0.0,0.0,88,0.00,,,0.00,VWS V14.01,2013-06-23 08:26:00,
2013-06-23 04:31:00,63.3,59.6,30.15,ENE,71,0.0,0.0,88,0.00,,,0.00,VWS V14.01,2013-06-23 08:31:00,
2013-06-23 04:36:00,63.3,59.6,30.15,ENE,71,0.0,0.0,88,0.00,,,0.00,VWS V14.01,2013-06-23 08:36:00,
2013-06-23 04:41:00,63.3,59.6,30.15,ENE,71,0.0,0.0,88,0.00,,,0.00,VWS V14.01,2013-06-23 08:41:00,
2013-06-23 04:46:00,63.3,59.6,30.18,ENE,71,0.0,0.0,88,0.00,,,0.00,VWS V14.01,2013-06-23 08:46:00,
2013-06-23 04:51:00,63.3,59.6,30.18,ENE,71,0.0,0.0,88,0.00,,,0.00,VWS V14.01,2013-06-23 08:51:00,
2013-06-23 04:56:00,63.3,59.6,30.18,ENE,71,0.0,0.0,88,0.00,,,0.00,VWS V14.01,2013-06-23 08:56:00,
2013-06-23 05:01:00,63.3,59.6,30.15,ENE,71,0.0,0.0,88,0.00,,,0.00,VWS V14.01,2013-06-23 09:01:00,
2013-06-23 05:06:00,63.3,59.6,30.15,ENE,71,0.0,0.0,88,0.00,,FEW038,0.00,VWS V14.01,2013-06-23 09:06:00,
2013-06-23 05:11:00,63.1,59.4,30.15,ENE,71,0.0,0.0,88,0.00,,FEW038,0.00,VWS V14.01,2013-06-23 09:11:00,
2013-06-23 05:16:00,63.1,59.4,30.15,ENE,71,0.0,0.0,88,0.00,,FEW038,0.00,VWS V14.01,2013-06-23 09:16:00,
2013-06-23 05:21:00,63.1,59.4,30.15,ENE,71,0.0,0.0,88,0.00,,FEW038,0.00,VWS V14.01,2013-06-23 09:21:00,
2013-06-23 05:26:00,63.1,59.4,30.15,ENE,71,0.0,0.0,88,0.00,,FEW038,0.00,VWS V14.01,2013-06-23 09:26:00,
2013-06-23 05:31:00,63.1,59.2,30.18,ENE,71,0.0,0.0,87,0.00,,FEW038,0.00,VWS V14.01,2013-06-23 09:31:00,
2013-06-23 05:36:00,63.1,59.2,30.18,ENE,71,0.0,0.0,87,0.00,,FEW038,0.00,VWS V14.01,2013-06-23 09:36:00,
2013-06-23 05:41:00,63.1,59.2,30.18,ENE,71,0.0,0.0,87,0.00,,FEW038,0.00,VWS V14.01,2013-06-23 09:41:00,
2013-06-23 05:46:00,63.1,59.4,30.18,ENE,71,0.0,0.0,88,0.00,,FEW038,0.00,VWS V14.01,2013-06-23 09:46:00,
2013-06-23 05:51:00,63.1,59.4,30.18,ENE,71,0.0,0.0,88,0.00,,FEW038,0.00,VWS V14.01,2013-06-23 09:51:00,
2013-06-23 05:56:00,63.1,59.0,30.18,ENE,71,0.0,0.0,86,0.00,,FEW038,0.00,VWS V14.01,2013-06-23 09:56:00,
2013-06-23 06:01:00,63.1,57.4,30.18,ENE,71,0.0,0.0,81,0.00,,FEW038,0.00,VWS V14.01,2013-06-23 10:01:00,
2013-06-23 06:06:00,63.1,56.7,30.18,ENE,71,0.0,0.0,79,0.00,,,0.00,VWS V14.01,2013-06-23 10:06:00,
2013-06-23 06:11:00,63.3,55.9,30.18,ENE,71,0.0,0.0,77,0.00,,,0.00,VWS V14.01,2013-06-23 10:11:00,
2013-06-23 06:16:00,63.5,55.6,30.18,ENE,71,0.0,0.0,75,0.00,,,0.00,VWS V14.01,2013-06-23 10:16:00,
2013-06-23 06:21:00,63.7,55.5,30.18,ENE,71,0.0,0.0,75,0.00,,,0.00,VWS V14.01,2013-06-23 10:21:00,
2013-06-23 06:26:00,64.0,55.6,30.18,ENE,71,0.0,0.0,74,0.00,,,0.00,VWS V14.01,2013-06-23 10:26:00,
2013-06-23 06:31:00,64.2,55.8,30.18,ENE,71,0.0,0.0,74,0.00,,,0.00,VWS V14.01,2013-06-23 10:31:00,
2013-06-23 06:36:00,64.4,55.7,30.18,ENE,71,0.0,0.0,73,0.00,,,0.00,VWS V14.01,2013-06-23 10:36:00,
2013-06-23 06:41:00,64.8,55.8,30.18,ENE,71,0.0,0.0,73,0.00,,,0.00,VWS V14.01,2013-06-23 10:41:00,
2013-06-23 06:46:00,64.9,56.0,30.18,ENE,71,0.0,0.0,73,0.00,,,0.00,VWS V14.01,2013-06-23 10:46:00,
2013-06-23 06:51:00,65.1,55.9,30.18,ENE,71,0.0,0.0,72,0.00,,,0.00,VWS V14.01,2013-06-23 10:51:00,
2013-06-23 06:56:00,65.5,56.2,30.18,ENE,71,0.0,0.0,72,0.00,,,0.00,VWS V14.01,2013-06-23 10:56:00,
2013-06-23 07:01:00,65.8,56.3,30.18,ENE,71,0.0,0.0,71,0.00,,,0.00,VWS V14.01,2013-06-23 11:01:00,
2013-06-23 07:06:00,66.0,58.5,30.18,ENE,71,0.0,0.0,77,0.00,,,0.00,VWS V14.01,2013-06-23 11:06:00,
2013-06-23 07:11:00,66.4,59.8,30.18,ENE,71,0.0,0.0,79,0.00,,,0.00,VWS V14.01,2013-06-23 11:11:00,
2013-06-23 07:16:00,66.6,61.0,30.18,ENE,71,0.0,0.0,82,0.00,,,0.00,VWS V14.01,2013-06-23 11:16:00,
2013-06-23 07:21:00,66.9,61.8,30.18,ENE,71,0.0,0.0,83,0.00,,,0.00,VWS V14.01,2013-06-23 11:21:00,
2013-06-23 07:26:00,67.1,62.2,30.18,ENE,71,0.0,0.0,84,0.00,,,0.00,VWS V14.01,2013-06-23 11:26:00,
2013-06-23 07:31:00,67.5,62.7,30.18,ENE,71,0.0,0.0,85,0.00,,,0.00,VWS V14.01,2013-06-23 11:31:00,
2013-06-23 07:36:00,67.6,63.2,30.18,ENE,71,0.0,0.0,86,0.00,,,0.00,VWS V14.01,2013-06-23 11:36:00,
2013-06-23 07:41:00,68.0,63.5,30.18,ENE,71,0.0,0.0,86,0.00,,,0.00,VWS V14.01,2013-06-23 11:41:00,
2013-06-23 07:46:00,68.4,63.6,30.18,ENE,71,0.0,0.0,85,0.00,,,0.00,VWS V14.01,2013-06-23 11:46:00,
2013-06-23 07:51:00,68.7,64.0,30.18,ENE,71,0.0,0.0,85,0.00,,,0.00,VWS V14.01,2013-06-23 11:51:00,
2013-06-23 07:56:00,68.9,64.2,30.18,ENE,71,0.0,0.0,85,0.00,,,0.00,VWS V14.01,2013-06-23 11:56:00,
2013-06-23 08:01:00,69.3,64.1,30.18,ENE,71,0.0,0.0,83,0.00,,,0.00,VWS V14.01,2013-06-23 12:01:00,
2013-06-23 08:06:00,69.6,64.2,30.18,ENE,71,0.0,0.0,83,0.00,,,0.00,VWS V14.01,2013-06-23 12:06:00,
2013-06-23 08:11:00,70.0,64.3,30.18,ENE,71,0.0,0.0,82,0.00,,,0.00,VWS V14.01,2013-06-23 12:11:00,
2013-06-23 08:16:00,70.2,64.5,30.18,ENE,71,0.0,0.0,82,0.00,,,0.00,VWS V14.01,2013-06-23 12:16:00,
2013-06-23 08:21:00,70.5,64.8,30.18,ENE,71,0.0,0.0,82,0.00,,,0.00,VWS V14.01,2013-06-23 12:21:00,
2013-06-23 08:26:00,70.7,64.8,30.18,ENE,71,0.0,0.0,81,0.00,,,0.00,VWS V14.01,2013-06-23 12:26:00,
2013-06-23 08:31:00,71.1,65.1,30.18,ENE,71,0.0,0.0,81,0.00,,,0.00,VWS V14.01,2013-06-23 12:31:00,
2013-06-23 08:36:00,71.4,65.4,30.18,ENE,71,0.0,0.0,81,0.00,,,0.00,VWS V14.01,2013-06-23 12:36:00,
2013-06-23 08:41:00,71.6,65.4,30.18,ESE,103,0.0,0.0,81,0.00,,,0.00,VWS V14.01,2013-06-23 12:41:00,
2013-06-23 08:46:00,72.0,65.2,30.18,ESE,103,0.0,0.0,79,0.00,,,0.00,VWS V14.01,2013-06-23 12:46:00,
2013-06-23 08:51:00,72.1,65.2,30.18,ESE,103,0.0,0.0,79,0.00,,,0.00,VWS V14.01,2013-06-23 12:51:00,
2013-06-23 08:56:00,72.5,65.3,30.18,ESE,103,0.0,0.0,78,0.00,,,0.00,VWS V14.01,2013-06-23 12:56:00,
2013-06-23 09:01:00,72.7,65.7,30.18,ESE,103,0.0,0.0,79,0.00,,,0.00,VWS V14.01,2013-06-23 13:01:00,
2013-06-23 09:06:00,72.9,65.9,30.18,ESE,103,0.0,0.0,79,0.00,,CLR,0.00,VWS V14.01,2013-06-23 13:06:00,
2013-06-23 09:11:00,73.2,66.0,30.18,East,82,4.5,5.4,78,0.00,,CLR,0.00,VWS V14.01,2013-06-23 13:11:00,
2013-06-23 09:16:00,73.4,65.9,30.18,East,82,0.0,0.0,77,0.00,,CLR,0.00,VWS V14.01,2013-06-23 13:16:00,
2013-06-23 09:21:00,73.6,65.8,30.18,East,82,0.0,0.0,77,0.00,,CLR,0.00,VWS V14.01,2013-06-23 13:21:00,
2013-06-23 09:26:00,73.9,66.4,30.18,East,82,0.0,0.0,77,0.00,,CLR,0.00,VWS V14.01,2013-06-23 13:26:00,
2013-06-23 09:31:00,74.1,66.6,30.18,East,82,4.5,4.5,77,0.00,,CLR,0.00,VWS V14.01,2013-06-23 13:31:00,
2013-06-23 09:36:00,74.3,66.3,30.18,East,82,0.0,0.0,76,0.00,,CLR,0.00,VWS V14.01,2013-06-23 13:36:00,
2013-06-23 09:41:00,74.7,66.6,30.18,East,82,0.0,0.0,76,0.00,,CLR,0.00,VWS V14.01,2013-06-23 13:41:00,
2013-06-23 09:46:00,74.8,67.1,30.18,East,82,0.0,0.0,77,0.00,,CLR,0.00,VWS V14.01,2013-06-23 13:46:00,
2013-06-23 09:51:00,75.2,66.9,30.18,East,83,0.0,0.0,75,0.00,,CLR,0.00,VWS V14.01,2013-06-23 13:51:00,
2013-06-23 09:56:00,75.4,67.1,30.18,East,89,5.4,5.4,75,0.00,,CLR,0.00,VWS V14.01,2013-06-23 13:56:00,
2013-06-23 10:01:00,75.6,67.2,30.18,East,89,0.0,0.0,75,0.00,,CLR,0.00,VWS V14.01,2013-06-23 14:01:00,
2013-06-23 10:06:00,75.7,67.4,30.18,ENE,66,5.4,6.3,75,0.00,,CLR,0.00,VWS V14.01,2013-06-23 14:06:00,
2013-06-23 10:11:00,76.1,67.2,30.18,East,89,0.0,0.0,74,0.00,,CLR,0.00,VWS V14.01,2013-06-23 14:11:00,
2013-06-23 10:16:00,76.3,67.1,30.18,East,89,0.0,5.4,73,0.00,,CLR,0.00,VWS V14.01,2013-06-23 14:16:00,
2013-06-23 10:21:00,76.5,67.3,30.18,East,89,0.0,5.4,73,0.00,,CLR,0.00,VWS V14.01,2013-06-23 14:21:00,
2013-06-23 10:26:00,76.8,67.7,30.18,ESE,119,5.4,5.4,73,0.00,,CLR,0.00,VWS V14.01,2013-06-23 14:26:00,
2013-06-23 10:31:00,77.0,67.6,30.18,East,92,0.0,0.0,73,0.00,,CLR,0.00,VWS V14.01,2013-06-23 14:31:00,
2013-06-23 10:36:00,77.2,67.7,30.18,East,92,0.0,5.4,73,0.00,,CLR,0.00,VWS V14.01,2013-06-23 14:36:00,
2013-06-23 10:41:00,77.5,67.8,30.18,East,92,4.5,4.5,72,0.00,,CLR,0.00,VWS V14.01,2013-06-23 14:41:00,
2013-06-23 10:46:00,77.7,68.0,30.15,ENE,78,0.0,0.0,72,0.00,,CLR,0.00,VWS V14.01,2013-06-23 14:46:00,
2013-06-23 10:51:00,77.9,68.2,30.15,ENE,76,0.0,0.0,72,0.00,,CLR,0.00,VWS V14.01,2013-06-23 14:51:00,
2013-06-23 10:56:00,78.3,68.5,30.15,ENE,76,0.0,0.0,72,0.00,,CLR,0.00,VWS V14.01,2013-06-23 14:56:00,
2013-06-23 11:01:00,78.4,68.4,30.15,East,97,6.3,6.3,71,0.00,,CLR,0.00,VWS V14.01,2013-06-23 15:01:00,
2013-06-23 11:06:00,79.0,68.6,30.15,ENE,65,8.1,8.1,71,0.00,,FEW030,0.00,VWS V14.01,2013-06-23 15:06:00,
2013-06-23 11:11:00,79.3,68.7,30.15,East,85,0.0,0.0,70,0.00,,FEW030,0.00,VWS V14.01,2013-06-23 15:11:00,
2013-06-23 11:16:00,79.9,69.2,30.15,East,85,0.0,4.5,70,0.00,,FEW030,0.00,VWS V14.01,2013-06-23 15:16:00,
2013-06-23 11:21:00,80.4,69.4,30.15,ESE,119,0.0,4.5,69,0.00,,FEW030,0.00,VWS V14.01,2013-06-23 15:21:00,
2013-06-23 11:26:00,81.0,70.0,30.15,East,80,0.0,0.0,69,0.00,,FEW030,0.00,VWS V14.01,2013-06-23 15:26:00,
2013-06-23 11:31:00,81.5,70.5,30.15,East,85,0.0,6.3,69,0.00,,FEW030,0.00,VWS V14.01,2013-06-23 15:31:00,
2013-06-23 11:36:00,82.4,71.1,30.15,East,96,5.4,5.4,69,0.00,,FEW030,0.00,VWS V14.01,2013-06-23 15:36:00,
2013-06-23 11:41:00,83.3,71.0,30.15,East,95,0.0,0.0,67,0.00,,FEW030,0.00,VWS V14.01,2013-06-23 15:41:00,
2013-06-23 11:46:00,84.4,71.7,30.15,East,96,0.0,0.0,66,0.00,,FEW030,0.00,VWS V14.01,2013-06-23 15:46:00,
2013-06-23 11:51:00,85.5,72.2,30.15,East,101,0.0,0.0,65,0.00,,FEW030,0.00,VWS V14.01,2013-06-23 15:51:00,
2013-06-23 11:56:00,86.7,73.3,30.15,East,101,0.0,0.0,65,0.00,,FEW030,0.00,VWS V14.01,2013-06-23 15:56:00,
2013-06-23 12:01:00,87.6,73.6,30.15,NE,41,0.0,6.3,63,0.00,,FEW030,0.00,VWS V14.01,2013-06-23 16:01:00,
2013-06-23 12:06:00,88.7,74.3,30.15,ESE,112,0.0,5.4,63,0.00,,FEW034,0.00,VWS V14.01,2013-06-23 16:06:00,
2013-06-23 12:11:00,89.6,74.5,30.15,ENE,64,0.0,0.0,61,0.00,,FEW034,0.00,VWS V14.01,2013-06-23 16:11:00,
2013-06-23 12:16:00,90.5,75.3,30.15,NE,46,0.0,0.0,61,0.00,,FEW034,0.00,VWS V14.01,2013-06-23 16:16:00,
2013-06-23 12:21:00,91.4,75.5,30.15,East,88,4.5,4.5,60,0.00,,FEW034,0.00,VWS V14.01,2013-06-23 16:21:00,
2013-06-23 12:26:00,92.3,76.0,30.15,ESE,107,0.0,6.3,59,0.00,,FEW034,0.00,VWS V14.01,2013-06-23 16:26:00,
2013-06-23 12:31:00,93.2,76.1,30.15,NE,42,0.0,5.4,58,0.00,,FEW034,0.00,VWS V14.01,2013-06-23 16:31:00,
2013-06-23 12:36:00,94.1,76.2,30.15,East,81,0.0,0.0,56,0.00,,FEW034,0.00,VWS V14.01,2013-06-23 16:36:00,
2013-06-23 12:41:00,95.0,76.7,30.15,NE,47,0.0,0.0,56,0.00,,FEW034,0.00,VWS V14.01,2013-06-23 16:41:00,
2013-06-23 12:46:00,95.9,77.9,30.15,NE,47,0.0,0.0,56,0.00,,FEW034,0.00,VWS V14.01,2013-06-23 16:46:00,
2013-06-23 12:51:00,96.8,78.0,30.15,East,94,0.0,0.0,55,0.00,,FEW034,0.00,VWS V14.01,2013-06-23 16:51:00,
2013-06-23 12:56:00,97.5,78.3,30.15,East,80,0.0,0.0,54,0.00,,FEW034,0.00,VWS V14.01,2013-06-23 16:56:00,
2013-06-23 12:57:00,97.5,78.3,30.15,East,80,0.0,0.0,54,0.00,,FEW034,0.00,VWS V14.01,2013-06-23 16:57:00,
2013-06-23 12:58:00,97.7,78.5,30.15,East,80,0.0,0.0,54,0.00,,FEW034,0.00,VWS V14.01,2013-06-23 16:58:00,
2013-06-23 13:03:00,98.4,79.1,30.15,East,80,0.0,0.0,54,0.00,,SCT045,0.00,VWS V14.01,2013-06-23 17:03:00,
2013-06-23 13:08:00,99.0,79.3,30.15,ENE,66,0.0,7.2,54,0.00,,SCT045,0.00,VWS V14.01,2013-06-23 17:08:00,
2013-06-23 13:13:00,99.5,79.4,30.15,ENE,66,0.0,0.0,53,0.00,,SCT045,0.00,VWS V14.01,2013-06-23 17:13:00,
2013-06-23 13:18:00,100.0,79.9,30.12,East,79,0.0,8.1,53,0.00,,SCT045,0.00,VWS V14.01,2013-06-23 17:18:00,
2013-06-23 13:23:00,99.9,79.7,30.12,East,79,0.0,0.0,53,0.00,,SCT045,0.00,VWS V14.01,2013-06-23 17:23:00,
2013-06-23 13:28:00,99.0,78.9,30.12,East,79,4.5,4.5,53,0.00,,SCT045,0.00,VWS V14.01,2013-06-23 17:28:00,
2013-06-23 13:33:00,97.5,77.9,30.12,East,79,0.0,0.0,54,0.00,,SCT045,0.00,VWS V14.01,2013-06-23 17:33:00,
2013-06-23 13:38:00,96.3,76.8,30.12,ESE,109,0.0,6.3,54,0.00,,SCT045,0.00,VWS V14.01,2013-06-23 17:38:00,
2013-06-23 13:43:00,95.2,75.8,30.12,ESE,109,0.0,0.0,54,0.00,,SCT045,0.00,VWS V14.01,2013-06-23 17:43:00,
2013-06-23 13:48:00,94.3,75.3,30.12,NE,52,0.0,5.4,54,0.00,,SCT045,0.00,VWS V14.01,2013-06-23 17:48:00,
2013-06-23 13:53:00,93.4,74.5,30.12,ESE,105,0.0,0.0,54,0.00,,SCT045,0.00,VWS V14.01,2013-06-23 17:53:00,
2013-06-23 13:58:00,93.4,74.8,30.12,East,99,4.5,4.5,55,0.00,,SCT045,0.00,VWS V14.01,2013-06-23 17:58:00,
2013-06-23 14:03:00,93.6,75.0,30.12,East,98,0.0,0.0,55,0.00,,FEW090,0.00,VWS V14.01,2013-06-23 18:03:00,
2013-06-23 14:08:00,93.4,74.8,30.12,East,98,0.0,0.0,55,0.00,,FEW090,0.00,VWS V14.01,2013-06-23 18:08:00,
2013-06-23 14:13:00,93.2,74.7,30.12,East,101,0.0,5.4,55,0.00,,FEW090,0.00,VWS V14.01,2013-06-23 18:13:00,
2013-06-23 14:18:00,92.8,74.7,30.12,East,97,0.0,0.0,56,0.00,,FEW090,0.00,VWS V14.01,2013-06-23 18:18:00,
2013-06-23 14:23:00,92.5,74.7,30.12,East,97,0.0,0.0,56,0.00,,FEW090,0.00,VWS V14.01,2013-06-23 18:23:00,
2013-06-23 14:28:00,91.9,74.2,30.12,ESE,107,0.0,0.0,56,0.00,,FEW090,0.00,VWS V14.01,2013-06-23 18:28:00,
2013-06-23 14:33:00,91.2,73.9,30.12,ESE,107,0.0,0.0,57,0.00,,FEW090,0.00,VWS V14.01,2013-06-23 18:33:00,
2013-06-23 14:38:00,90.5,73.6,30.12,ENE,75,0.0,0.0,58,0.00,,FEW090,0.00,VWS V14.01,2013-06-23 18:38:00,
2013-06-23 14:43:00,89.8,72.9,30.12,ENE,69,0.0,0.0,58,0.00,,FEW090,0.00,VWS V14.01,2013-06-23 18:43:00,
2013-06-23 14:48:00,89.2,72.8,30.12,East,80,0.0,0.0,58,0.00,,FEW090,0.00,VWS V14.01,2013-06-23 18:48:00,
2013-06-23 14:53:00,88.7,72.6,30.12,East,97,0.0,5.4,59,0.00,,FEW090,0.00,VWS V14.01,2013-06-23 18:53:00,
2013-06-23 14:58:00,88.2,72.4,30.12,ENE,67,0.0,7.2,60,0.00,,FEW090,0.00,VWS V14.01,2013-06-23 18:58:00,
2013-06-23 15:03:00,87.6,72.6,30.12,East,85,0.0,5.4,61,0.00,,FEW090,0.00,VWS V14.01,2013-06-23 19:03:00,
2013-06-23 15:08:00,87.1,72.1,30.12,East,99,0.0,0.0,61,0.00,,FEW090,0.00,VWS V14.01,2013-06-23 19:08:00,
2013-06-23 15:13:00,86.7,72.1,30.12,ENE,75,0.0,5.4,62,0.00,,FEW090,0.00,VWS V14.01,2013-06-23 19:13:00,
2013-06-23 15:18:00,86.4,72.1,30.12,East,87,0.0,0.0,63,0.00,,FEW090,0.00,VWS V14.01,2013-06-23 19:18:00,
2013-06-23 15:23:00,86.0,71.7,30.12,East,88,4.5,5.4,63,0.00,,FEW090,0.00,VWS V14.01,2013-06-23 19:23:00,
2013-06-23 15:28:00,85.8,71.9,30.12,ENE,67,8.1,8.1,63,0.00,,FEW090,0.00,VWS V14.01,2013-06-23 19:28:00,
2013-06-23 15:33:00,85.3,71.7,30.09,East,95,0.0,8.1,64,0.00,,FEW090,0.00,VWS V14.01,2013-06-23 19:33:00,
2013-06-23 15:38:00,84.9,71.3,30.09,ENE,57,0.0,0.0,64,0.00,,FEW090,0.00,VWS V14.01,2013-06-23 19:38:00,
2013-06-23 15:43:00,84.6,71.3,30.09,NNE,28,0.0,7.2,65,0.00,,FEW090,0.00,VWS V14.01,2013-06-23 19:43:00,
2013-06-23 15:48:00,84.2,71.0,30.09,SW,234,0.0,7.2,65,0.00,,FEW090,0.00,VWS V14.01,2013-06-23 19:48:00,
2013-06-23 15:53:00,83.8,70.9,30.09,ESE,112,0.0,0.0,65,0.00,,FEW090,0.00,VWS V14.01,2013-06-23 19:53:00,
2013-06-23 15:58:00,83.7,70.8,30.09,ENE,65,0.0,8.1,65,0.00,,FEW090,0.00,VWS V14.01,2013-06-23 19:58:00,
2013-06-23 16:03:00,83.3,70.7,30.09,East,92,0.0,7.2,66,0.00,,BKN100,0.00,VWS V14.01,2013-06-23 20:03:00,
2013-06-23 16:08:00,82.9,70.7,30.09,East,92,0.0,0.0,67,0.00,,BKN100,0.00,VWS V14.01,2013-06-23 20:08:00,
2013-06-23 16:13:00,82.8,70.5,30.09,East,91,0.0,0.0,67,0.00,,BKN100,0.00,VWS V14.01,2013-06-23 20:13:00,
2013-06-23 16:18:00,82.6,70.3,30.09,ESE,109,0.0,8.1,67,0.00,,BKN100,0.00,VWS V14.01,2013-06-23 20:18:00,
2013-06-23 16:23:00,82.2,70.6,30.09,NE,44,0.0,5.4,68,0.00,,BKN100,0.00,VWS V14.01,2013-06-23 20:23:00,
2013-06-23 16:28:00,82.2,70.6,30.09,NE,39,0.0,0.0,68,0.00,,BKN100,0.00,VWS V14.01,2013-06-23 20:28:00,
2013-06-23 16:33:00,82.0,70.4,30.09,ESE,109,0.0,6.3,68,0.00,,BKN100,0.00,VWS V14.01,2013-06-23 20:33:00,
2013-06-23 16:38:00,81.9,70.5,30.09,North,353,0.0,0.0,69,0.00,,BKN100,0.00,VWS V14.01,2013-06-23 20:38:00,
2013-06-23 16:43:00,81.9,70.5,30.09,NNE,26,0.0,0.0,69,0.00,,BKN100,0.00,VWS V14.01,2013-06-23 20:43:00,
2013-06-23 16:48:00,81.5,70.2,30.09,ENE,76,0.0,7.2,69,0.00,,BKN100,0.00,VWS V14.01,2013-06-23 20:48:00,
2013-06-23 16:53:00,81.3,70.0,30.09,ESE,111,4.5,6.3,69,0.00,,BKN100,0.00,VWS V14.01,2013-06-23 20:53:00,
2013-06-23 16:58:00,81.1,70.1,30.09,NE,48,0.0,0.0,69,0.00,,BKN100,0.00,VWS V14.01,2013-06-23 20:58:00,
2013-06-23 17:03:00,81.0,70.0,30.09,NNE,32,0.0,0.0,69,0.00,,BKN080,0.00,VWS V14.01,2013-06-23 21:03:00,
2013-06-23 17:08:00,80.8,70.1,30.09,NE,55,0.0,0.0,70,0.00,,BKN080,0.00,VWS V14.01,2013-06-23 21:08:00,
2013-06-23 17:13:00,80.6,69.9,30.09,NE,46,0.0,7.2,70,0.00,,BKN080,0.00,VWS V14.01,2013-06-23 21:13:00,
2013-06-23 17:18:00,80.4,70.0,30.09,NNE,29,0.0,0.0,71,0.00,,BKN080,0.00,VWS V14.01,2013-06-23 21:18:00,
2013-06-23 17:23:00,80.2,69.8,30.09,NE,40,8.1,8.1,71,0.00,,BKN080,0.00,VWS V14.01,2013-06-23 21:23:00,
2013-06-23 17:28:00,80.1,69.7,30.09,ENE,74,4.5,5.4,71,0.00,,BKN080,0.00,VWS V14.01,2013-06-23 21:28:00,
2013-06-23 17:33:00,79.9,69.8,30.09,East,94,0.0,0.0,71,0.00,,BKN080,0.00,VWS V14.01,2013-06-23 21:33:00,
2013-06-23 17:38:00,79.7,69.6,30.09,NE,41,0.0,8.1,71,0.00,,BKN080,0.00,VWS V14.01,2013-06-23 21:38:00,
2013-06-23 17:43:00,79.7,69.6,30.09,NE,41,0.0,0.0,71,0.00,,BKN080,0.00,VWS V14.01,2013-06-23 21:43:00,
2013-06-23 17:48:00,79.5,69.7,30.09,NE,38,0.0,0.0,72,0.00,,BKN080,0.00,VWS V14.01,2013-06-23 21:48:00,
2013-06-23 17:53:00,79.3,69.8,30.09,NE,47,0.0,0.0,73,0.00,,BKN080,0.00,VWS V14.01,2013-06-23 21:53:00,
2013-06-23 17:58:00,79.2,69.6,30.09,NE,54,5.4,7.2,73,0.00,,BKN080,0.00,VWS V14.01,2013-06-23 21:58:00,
2013-06-23 18:03:00,79.2,69.6,30.09,NE,54,0.0,0.0,73,0.00,,FEW055,0.00,VWS V14.01,2013-06-23 22:03:00,
2013-06-23 18:08:00,79.0,69.5,30.09,East,87,0.0,5.4,73,0.00,,FEW055,0.00,VWS V14.01,2013-06-23 22:08:00,
2013-06-23 18:13:00,78.8,69.6,30.09,East,90,4.5,4.5,73,0.00,,FEW055,0.00,VWS V14.01,2013-06-23 22:13:00,
2013-06-23 18:18:00,78.6,69.7,30.09,East,90,0.0,0.0,74,0.00,,FEW055,0.00,VWS V14.01,2013-06-23 22:18:00,
2013-06-23 18:23:00,78.6,69.7,30.09,East,90,0.0,0.0,74,0.00,,FEW055,0.00,VWS V14.01,2013-06-23 22:23:00,
2013-06-23 18:28:00,78.4,69.5,30.09,East,90,0.0,0.0,74,0.00,,FEW055,0.00,VWS V14.01,2013-06-23 22:28:00,
2013-06-23 18:33:00,78.4,69.7,30.09,East,93,0.0,0.0,75,0.00,,FEW055,0.00,VWS V14.01,2013-06-23 22:33:00,
2013-06-23 18:38:00,78.3,69.6,30.09,East,93,0.0,0.0,75,0.00,,FEW055,0.00,VWS V14.01,2013-06-23 22:38:00,
2013-06-23 18:43:00,78.1,69.7,30.09,East,93,0.0,0.0,75,0.00,,FEW055,0.00,VWS V14.01,2013-06-23 22:43:00,
2013-06-23 18:48:00,77.9,69.5,30.09,East,93,0.0,0.0,75,0.00,,FEW055,0.00,VWS V14.01,2013-06-23 22:48:00,
2013-06-23 18:53:00,77.9,69.8,30.09,East,93,0.0,0.0,76,0.00,,FEW055,0.00,VWS V14.01,2013-06-23 22:53:00,
2013-06-23 18:58:00,77.7,69.6,30.09,NE,49,0.0,8.1,76,0.00,,FEW055,0.00,VWS V14.01,2013-06-23 22:58:00,
2013-06-23 19:03:00,77.7,69.6,30.09,NE,49,0.0,0.0,76,0.00,,FEW055,0.00,VWS V14.01,2013-06-23 23:03:00,
2013-06-23 19:08:00,77.5,69.7,30.09,East,82,0.0,0.0,77,0.00,,FEW055,0.00,VWS V14.01,2013-06-23 23:08:00,
2013-06-23 19:13:00,77.5,69.7,30.09,East,97,0.0,0.0,77,0.00,,FEW055,0.00,VWS V14.01,2013-06-23 23:13:00,
2013-06-23 19:18:00,77.4,69.5,30.09,East,87,0.0,8.1,77,0.00,,FEW055,0.00,VWS V14.01,2013-06-23 23:18:00,
2013-06-23 19:23:00,77.4,69.5,30.09,East,87,0.0,0.0,77,0.00,,FEW055,0.00,VWS V14.01,2013-06-23 23:23:00,
2013-06-23 19:28:00,77.2,69.6,30.09,East,87,0.0,0.0,77,0.00,,FEW055,0.00,VWS V14.01,2013-06-23 23:28:00,
2013-06-23 19:33:00,77.2,69.6,30.09,East,87,0.0,0.0,77,0.00,,FEW055,0.00,VWS V14.01,2013-06-23 23:33:00,
2013-06-23 19:38:00,77.0,69.4,30.09,East,87,0.0,0.0,77,0.00,,FEW055,0.00,VWS V14.01,2013-06-23 23:38:00,
2013-06-23 19:43:00,77.0,69.7,30.09,East,87,0.0,0.0,78,0.00,,FEW055,0.00,VWS V14.01,2013-06-23 23:43:00,
2013-06-23 19:48:00,76.8,69.5,30.09,East,87,0.0,0.0,78,0.00,,FEW055,0.00,VWS V14.01,2013-06-23 23:48:00,
2013-06-23 19:53:00,76.6,69.3,30.09,East,87,0.0,0.0,78,0.00,,FEW055,0.00,VWS V14.01,2013-06-23 23:53:00,
2013-06-23 19:58:00,76.5,69.1,30.09,East,87,0.0,0.0,78,0.00,,FEW055,0.00,VWS V14.01,2013-06-23 23:58:00,
2013-06-23 20:03:00,76.3,69.2,30.09,East,87,0.0,0.0,79,0.00,,BKN055,0.00,VWS V14.01,2013-06-24 00:03:00,
2013-06-23 20:08:00,76.3,69.2,30.09,East,87,0.0,0.0,79,0.00,,BKN055,0.00,VWS V14.01,2013-06-24 00:08:00,
2013-06-23 20:13:00,76.1,69.0,30.09,East,87,0.0,0.0,79,0.00,,BKN055,0.00,VWS V14.01,2013-06-24 00:13:00,
2013-06-23 20:18:00,75.9,68.8,30.09,East,86,0.0,0.0,79,0.00,,BKN055,0.00,VWS V14.01,2013-06-24 00:18:00,
2013-06-23 20:23:00,75.7,68.7,30.09,East,87,0.0,0.0,79,0.00,,BKN055,0.00,VWS V14.01,2013-06-24 00:23:00,
2013-06-23 20:28:00,75.6,68.8,30.09,East,87,0.0,0.0,79,0.00,,BKN055,0.00,VWS V14.01,2013-06-24 00:28:00,
2013-06-23 20:33:00,75.6,68.8,30.09,East,87,0.0,0.0,79,0.00,,BKN055,0.00,VWS V14.01,2013-06-24 00:33:00,
2013-06-23 20:38:00,75.4,68.8,30.09,East,87,0.0,0.0,80,0.00,,BKN055,0.00,VWS V14.01,2013-06-24 00:38:00,
2013-06-23 20:43:00,75.2,68.7,30.09,East,87,0.0,0.0,80,0.00,,BKN055,0.00,VWS V14.01,2013-06-24 00:43:00,
2013-06-23 20:48:00,75.0,68.7,30.09,East,87,0.0,0.0,81,0.00,,BKN055,0.00,VWS V14.01,2013-06-24 00:48:00,
2013-06-23 20:53:00,74.8,68.5,30.09,East,87,0.0,0.0,81,0.00,,BKN055,0.00,VWS V14.01,2013-06-24 00:53:00,
2013-06-23 20:58:00,74.8,68.8,30.09,East,87,0.0,0.0,81,0.00,,BKN055,0.00,VWS V14.01,2013-06-24 00:58:00,
2013-06-23 21:03:00,74.7,68.6,30.09,East,87,0.0,0.0,81,0.00,,CLR,0.00,VWS V14.01,2013-06-24 01:03:00,
2013-06-23 21:08:00,74.5,68.7,30.09,East,87,0.0,0.0,82,0.00,,CLR,0.00,VWS V14.01,2013-06-24 01:08:00,
2013-06-23 21:13:00,74.3,68.5,30.09,East,87,0.0,0.0,82,0.00,,CLR,0.00,VWS V14.01,2013-06-24 01:13:00,
2013-06-23 21:18:00,74.1,68.6,30.09,East,87,0.0,0.0,83,0.00,,CLR,0.00,VWS V14.01,2013-06-24 01:18:00,
2013-06-23 21:23:00,74.1,68.6,30.09,East,87,0.0,0.0,83,0.00,,CLR,0.00,VWS V14.01,2013-06-24 01:23:00,
2013-06-23 21:28:00,73.9,68.6,30.09,East,87,0.0,0.0,83,0.00,,CLR,0.00,VWS V14.01,2013-06-24 01:28:00,
2013-06-23 21:33:00,73.8,68.4,30.09,East,87,0.0,0.0,83,0.00,,CLR,0.00,VWS V14.01,2013-06-24 01:33:00,
2013-06-23 21:38:00,73.6,68.5,30.09,East,87,0.0,0.0,84,0.00,,CLR,0.00,VWS V14.01,2013-06-24 01:38:00,
2013-06-23 21:43:00,73.6,68.5,30.09,East,87,0.0,0.0,84,0.00,,CLR,0.00,VWS V14.01,2013-06-24 01:43:00,
2013-06-23 21:48:00,73.4,68.6,30.09,East,87,0.0,0.0,85,0.00,,CLR,0.00,VWS V14.01,2013-06-24 01:48:00,
2013-06-23 21:53:00,73.4,68.6,30.09,East,87,0.0,0.0,85,0.00,,CLR,0.00,VWS V14.01,2013-06-24 01:53:00,
2013-06-23 21:58:00,73.2,68.6,30.09,East,87,0.0,0.0,86,0.00,,CLR,0.00,VWS V14.01,2013-06-24 01:58:00,
2013-06-23 22:03:00,73.0,68.7,30.09,East,87,0.0,0.0,86,0.00,,CLR,0.00,VWS V14.01,2013-06-24 02:03:00,
2013-06-23 22:08:00,73.0,68.7,30.09,East,87,0.0,0.0,86,0.00,,CLR,0.00,VWS V14.01,2013-06-24 02:08:00,
2013-06-23 22:13:00,72.9,68.7,30.09,East,87,0.0,0.0,87,0.00,,CLR,0.00,VWS V14.01,2013-06-24 02:13:00,
2013-06-23 22:18:00,72.9,68.7,30.09,East,87,0.0,0.0,87,0.00,,CLR,0.00,VWS V14.01,2013-06-24 02:18:00,
2013-06-23 22:23:00,72.7,68.6,30.09,East,87,0.0,0.0,87,0.00,,CLR,0.00,VWS V14.01,2013-06-24 02:23:00,
2013-06-23 22:28:00,72.7,68.8,30.09,East,87,0.0,0.0,88,0.00,,CLR,0.00,VWS V14.01,2013-06-24 02:28:00,
2013-06-23 22:33:00,72.5,68.6,30.09,East,87,0.0,0.0,88,0.00,,CLR,0.00,VWS V14.01,2013-06-24 02:33:00,
2013-06-23 22:38:00,72.5,68.6,30.09,East,87,0.0,0.0,88,0.00,,CLR,0.00,VWS V14.01,2013-06-24 02:38:00,
2013-06-23 22:43:00,72.3,68.4,30.09,East,87,0.0,0.0,88,0.00,,CLR,0.00,VWS V14.01,2013-06-24 02:43:00,
2013-06-23 22:48:00,72.3,68.6,30.09,East,87,0.0,0.0,88,0.00,,CLR,0.00,VWS V14.01,2013-06-24 02:48:00,
2013-06-23 22:53:00,72.1,68.5,30.09,East,87,0.0,0.0,88,0.00,,CLR,0.00,VWS V14.01,2013-06-24 02:53:00,
2013-06-23 22:58:00,72.1,68.5,30.09,East,87,0.0,0.0,88,0.00,,CLR,0.00,VWS V14.01,2013-06-24 02:58:00,
2013-06-23 23:03:00,72.1,68.7,30.09,East,87,0.0,0.0,89,0.00,,,0.00,VWS V14.01,2013-06-24 03:03:00,
2013-06-23 23:08:00,72.0,68.5,30.09,East,87,0.0,0.0,89,0.00,,,0.00,VWS V14.01,2013-06-24 03:08:00,
2013-06-23 23:13:00,72.0,68.5,30.09,East,87,0.0,0.0,89,0.00,,,0.00,VWS V14.01,2013-06-24 03:13:00,
2013-06-23 23:18:00,71.8,68.3,30.09,East,86,0.0,0.0,89,0.00,,,0.00,VWS V14.01,2013-06-24 03:18:00,
2013-06-23 23:23:00,71.8,68.6,30.09,East,87,0.0,0.0,90,0.00,,,0.00,VWS V14.01,2013-06-24 03:23:00,
2013-06-23 23:28:00,71.6,68.4,30.09,East,87,0.0,0.0,90,0.00,,,0.00,VWS V14.01,2013-06-24 03:28:00,
2013-06-23 23:33:00,71.6,68.4,30.09,East,87,0.0,0.0,90,0.00,,,0.00,VWS V14.01,2013-06-24 03:33:00,
2013-06-23 23:38:00,71.4,68.4,30.09,East,87,0.0,0.0,90,0.00,,,0.00,VWS V14.01,2013-06-24 03:38:00,
2013-06-23 23:43:00,71.4,68.4,30.09,East,87,0.0,0.0,90,0.00,,,0.00,VWS V14.01,2013-06-24 03:43:00,
2013-06-23 23:48:00,71.4,68.4,30.09,East,87,0.0,0.0,90,0.00,,,0.00,VWS V14.01,2013-06-24 03:48:00,
2013-06-23 23:53:00,71.4,68.6,30.09,East,87,0.0,0.0,91,0.00,,,0.00,VWS V14.01,2013-06-24 03:53:00,
2013-06-23 23:58:00,71.4,68.6,30.09,East,87,0.0,0.0,91,0.00,,,0.00,VWS V14.01,2013-06-24 03:58:00,